Home   Weather   Tilburg   Past weeks

Flag for Netherlands Past Weather in Tilburg, Netherlands — Yesterday and Last 2 Weeks

Now
50 °F

Scattered clouds.


Feels Like: 44 °F
Forecast: 32 / 52 °F
Wind: 16 mph from Northwest

Location: Gilze-Rijen

Current Time: Apr 25, 2017 at 2:44:40 pm

Latest Report: Apr 25, 2017 at 1:55 pm


Visibility: N/A

Pressure: 29.83 "Hg

Humidity: 54%

Dew Point: 34 °F

Location of TilburgLocation

Past Weather in Tilburg — Graph

°F

Tilburg Temperature Yesterday

Maximum temperature yesterday: 59 °F (at 2:55 pm)
Minimum temperature yesterday: 36 °F (at 1:55 am)
Average temperature yesterday: 49 °F

High & Low Weather Summary for the Past Weeks

 TemperatureHumidityPressure
High61 °F (Apr 11, 3:25 pm)100% (Apr 11, 3:55 am)30.63 "Hg (Apr 11, 3:55 am)
Low25 °F (Apr 20, 6:25 am)33% (Apr 20, 3:25 pm)29.71 "Hg (Apr 25, 2:56 am)
Average46 °F72%30.19 "Hg
* Reported Apr 10 1:25 pm — Apr 25 1:25 pm, Tilburg, Weather by CustomWeather, © 2017

Note: Actual official high and low records may vary slightly from our data, if they occured in-between our weather recording intervals... More about our weather records

Advertising

Tilburg Weather History for the Previous 24 Hours

Scroll right to see more
 ConditionsComfort  
Time TempWeatherWind HumidityBarometerVisibility
1:25 pm
Tue, Apr 25
48 °FPartly sunny.13 mph62%29.83 "HgN/A
12:55 pm48 °FScattered clouds.16 mph58%29.80 "HgN/A
12:25 pm46 °FPartly sunny.16 mph66%29.80 "HgN/A
11:55 am45 °FBroken clouds.13 mph71%29.80 "HgN/A
11:25 am48 °FBroken clouds.14 mph66%29.80 "HgN/A
11:19 am46 °FBroken clouds.15 mph66%29.80 "HgN/A
10:55 am45 °FBroken clouds.15 mph71%29.77 "HgN/A
10:25 am43 °FScattered clouds.12 mph76%29.77 "HgN/A
9:57 am43 °FDrizzle. Broken clouds.17 mph76%29.77 "HgN/A
9:25 am45 °FBroken clouds.17 mph66%29.77 "HgN/A
8:55 am45 °FPassing clouds.13 mph66%29.77 "HgN/A
8:25 am43 °FQuite cool.12 mph71%29.74 "HgN/A
7:55 am41 °FQuite cool.8 mph70%29.74 "HgN/A
7:25 am41 °FScattered clouds.10 mph70%29.74 "HgN/A
6:55 am41 °FBroken clouds.8 mph76%29.74 "HgN/A
6:44 am41 °FCloudy.6 mph76%29.74 "HgN/A
6:25 am41 °FBroken clouds.6 mph76%29.74 "HgN/A
5:55 am41 °FPartly cloudy.7 mph76%29.71 "HgN/A
5:25 am41 °FMostly cloudy.12 mph81%29.74 "HgN/A
4:29 am43 °FMostly cloudy.13 mph81%29.71 "HgN/A
4:25 am43 °FMostly cloudy.15 mph81%29.71 "HgN/A
3:55 am45 °FOvercast.7 mph81%29.71 "HgN/A
2:56 am43 °FPartly cloudy.6 mph93%29.71 "HgN/A
2:25 am45 °FPartly cloudy.5 mph87%29.74 "HgN/A
1:55 am45 °FOvercast.3 mph87%29.74 "HgN/A
1:25 am45 °FLight rain. Mostly cloudy.5 mph87%29.74 "HgN/A
12:55 am45 °FDrizzle. Overcast.6 mph87%29.77 "HgN/A
12:26 am45 °FDrizzle. Mostly cloudy.8 mph93%29.77 "HgN/A
12:25 am45 °FLight rain. Mostly cloudy.9 mph93%29.77 "HgN/A
11:59 pm
Mon, Apr 24
46 °FLight rain. Passing clouds.9 mph93%29.77 "Hg5 mi
11:36 pm46 °FDrizzle. Mostly cloudy.9 mph93%29.77 "HgN/A
11:29 pm48 °FDrizzle. Low clouds.10 mph87%29.77 "HgN/A
11:05 pm48 °FPassing clouds.12 mph87%29.77 "HgN/A
9:55 pm52 °FOvercast.5 mph72%29.77 "HgN/A
9:25 pm52 °FOvercast.6 mph72%29.80 "HgN/A
9:07 pm54 °FOvercast.6 mph67%29.80 "HgN/A
8:25 pm54 °FOvercast.9 mph63%29.80 "HgN/A
7:57 pm54 °FCloudy.9 mph63%29.83 "HgN/A
7:25 pm55 °FMore clouds than sun.9 mph63%29.83 "HgN/A
6:55 pm55 °FMostly cloudy.8 mph63%29.83 "HgN/A
6:25 pm55 °FDrizzle. Cloudy.13 mph63%29.83 "HgN/A
5:55 pm57 °FBroken clouds.12 mph59%29.86 "HgN/A
5:25 pm55 °FBroken clouds.8 mph67%29.86 "HgN/A
4:55 pm55 °FMostly cloudy.9 mph63%29.86 "HgN/A
4:25 pm55 °FPartly sunny.13 mph59%29.89 "HgN/A
4:17 pm55 °FMore clouds than sun.12 mph59%29.89 "HgN/A
3:55 pm57 °FPartly sunny.14 mph51%29.89 "HgN/A
3:25 pm57 °FBroken clouds.12 mph55%29.92 "HgN/A
2:55 pm59 °FBroken clouds.13 mph55%29.92 "HgN/A
2:25 pm57 °FBroken clouds.10 mph55%29.95 "HgN/A
Weather by CustomWeather, © 2017

See weather overviewHow to use our weather pages